Weather History for Soldotna, AK

Change the Weather History Date:

Thursday, February 20, 2014

  Actual Average Record
Temperature  
Mean Temperature 18 °F -  
Max Temperature 24 °F 26 °F 41 °F (2008)
Min Temperature 12 °F 6 °F -26 °F (1954)
Degree Days  
Heating Degree Days 47    
Moisture  
Dew Point 13 °F    
Average Humidity 74    
Maximum Humidity 92    
Minimum Humidity 59    
Precipitation  
Precipitation 0.00 in - - ()
Sea Level Pressure  
Sea Level Pressure 29.95 in    
Wind  
Wind Speed 3 mph (SE)    
Max Wind Speed 8 mph    
Max Gust Speed -    
Visibility 10 miles    
Events      
Averages and records for this station are not official NWS values.
T = Trace of Precipitation, MM = Missing Value Source: NWS Daily Summary

Daily Weather History Graph

Daily Weather History Graph

Search for Another Location

Airport:

Trip Planner

Search our weather history database for the weather conditions in past years. The results will help you decide how hot, cold, wet, or windy it might be!

Date:

Astronomy

Feb. 20, 2014 Rise Set
Actual Time 8:29 AM AKST 6:07 PM AKST
Civil Twilight 7:45 AM AKST 6:51 PM AKST
Nautical Twilight 6:56 AM AKST 7:40 PM AKST
Astronomical Twilight 6:07 AM AKST 8:29 PM AKST
Moon 12:39 AM AKST (2/20) 9:43 AM AKST (2/20)
Length of Visible Light 11h 06m
Length of Day
9h 38m
Waning Gibbous, 69% of the Moon is Illuminated
Feb 20
Waning Gibbous
Feb 22
Last Quarter
Feb 28
New
Mar 8
First Quarter
Mar 16
Full

Hourly Weather History & Observations

Time (AKST) Temp. Windchill Dew Point Humidity Pressure Visibility Wind Dir Wind Speed Gust Speed Precip Events Conditions
12:16 AM 15.8 °F - 12.2 °F 86% 29.74 in 10.0 mi Calm Calm - N/A   Overcast
12:36 AM 17.6 °F - 12.2 °F 79% 29.75 in 10.0 mi Calm Calm - N/A   Overcast
12:56 AM 15.8 °F 10.2 °F 12.2 °F 86% 29.76 in 10.0 mi SSW 3.5 mph - N/A   Overcast
1:16 AM 21.2 °F 13.6 °F 14.0 °F 74% 29.77 in 10.0 mi SSW 5.8 mph - N/A   Overcast
1:36 AM 21.2 °F 16.4 °F 14.0 °F 74% 29.77 in 10.0 mi SW 3.5 mph - N/A   Overcast
1:56 AM 21.2 °F 13.6 °F 14.0 °F 74% 29.78 in 10.0 mi SSW 5.8 mph - N/A   Overcast
2:16 AM 21.2 °F 14.9 °F 14.0 °F 74% 29.79 in 10.0 mi South 4.6 mph - N/A   Overcast
2:36 AM 19.4 °F 14.3 °F 14.0 °F 80% 29.80 in 10.0 mi South 3.5 mph - N/A   Overcast
2:56 AM 19.4 °F 11.5 °F 12.2 °F 74% 29.80 in 10.0 mi South 5.8 mph - N/A   Overcast
3:16 AM 19.4 °F 11.5 °F 12.2 °F 74% 29.81 in 10.0 mi SSW 5.8 mph - N/A   Overcast
3:36 AM 19.4 °F 11.5 °F 12.2 °F 74% 29.82 in 10.0 mi SSW 5.8 mph - N/A   Overcast
3:56 AM 19.4 °F 12.8 °F 14.0 °F 80% 29.82 in 10.0 mi South 4.6 mph - N/A   Overcast
4:16 AM 19.4 °F 9.5 °F 12.2 °F 74% 29.82 in 10.0 mi SSW 8.1 mph - N/A   Overcast
4:36 AM 19.4 °F 11.5 °F 12.2 °F 74% 29.83 in 10.0 mi SSW 5.8 mph - N/A   Overcast
4:56 AM 19.4 °F 10.4 °F 12.2 °F 74% 29.84 in 10.0 mi SSW 6.9 mph - N/A   Overcast
5:16 AM 19.4 °F 10.4 °F 12.2 °F 74% 29.84 in 10.0 mi SSW 6.9 mph - N/A   Overcast
5:36 AM 19.4 °F 9.5 °F 12.2 °F 74% 29.85 in 10.0 mi SSW 8.1 mph - N/A   Overcast
5:56 AM 19.4 °F 11.5 °F 12.2 °F 74% 29.85 in 10.0 mi South 5.8 mph - N/A   Overcast
6:16 AM 19.4 °F - 12.2 °F 74% 29.86 in 10.0 mi Calm Calm - N/A   Overcast
6:36 AM 19.4 °F - 12.2 °F 74% 29.87 in 10.0 mi Calm Calm - N/A   Overcast
6:56 AM 19.4 °F - 12.2 °F 74% 29.87 in 10.0 mi Calm Calm - N/A   Overcast
7:16 AM 17.6 °F - 12.2 °F 79% 29.88 in 10.0 mi Calm Calm - N/A   Overcast
7:36 AM 19.4 °F 12.8 °F 12.2 °F 74% 29.89 in 10.0 mi SW 4.6 mph - N/A   Overcast
7:56 AM 19.4 °F 11.5 °F 12.2 °F 74% 29.90 in 10.0 mi SW 5.8 mph - N/A   Overcast
8:16 AM 19.4 °F 14.3 °F 12.2 °F 74% 29.91 in 10.0 mi SW 3.5 mph - N/A   Overcast
8:36 AM 19.4 °F 11.5 °F 12.2 °F 74% 29.92 in 10.0 mi SW 5.8 mph - N/A   Overcast
8:56 AM 19.4 °F 14.3 °F 12.2 °F 74% 29.92 in 10.0 mi WSW 3.5 mph - N/A   Overcast
9:16 AM 17.6 °F - 12.2 °F 79% 29.94 in 10.0 mi Calm Calm - N/A   Overcast
9:36 AM 19.4 °F - 12.2 °F 74% 29.94 in 10.0 mi Calm Calm - N/A   Overcast
9:56 AM 17.6 °F - 12.2 °F 79% 29.94 in 10.0 mi Calm Calm - N/A   Overcast
10:16 AM 17.6 °F - 12.2 °F 79% 29.94 in 10.0 mi Calm Calm - N/A   Overcast
10:36 AM 19.4 °F - 12.2 °F 74% 29.95 in 10.0 mi Calm Calm - N/A   Overcast
10:56 AM 19.4 °F - 12.2 °F 74% 29.96 in 10.0 mi Calm Calm - N/A   Overcast
11:16 AM 19.4 °F - 12.2 °F 74% 29.96 in 10.0 mi Calm Calm - N/A   Overcast
11:36 AM 21.2 °F - 14.0 °F 74% 29.97 in 10.0 mi Calm Calm - N/A   Overcast
11:56 AM 21.2 °F - 14.0 °F 74% 29.98 in 10.0 mi Calm Calm - N/A   Overcast
12:16 PM 21.2 °F - 14.0 °F 74% 29.98 in 10.0 mi Calm Calm - N/A   Overcast
12:36 PM 21.2 °F - 14.0 °F 74% 29.98 in 10.0 mi Calm Calm - N/A   Overcast
12:56 PM 21.2 °F - 15.8 °F 80% 29.99 in 10.0 mi Calm Calm - N/A   Overcast
1:16 PM 21.2 °F 16.4 °F 15.8 °F 80% 30.01 in 10.0 mi West 3.5 mph - N/A   Overcast
1:36 PM 23.0 °F - 15.8 °F 74% 30.00 in 10.0 mi Calm Calm - N/A   Overcast
1:56 PM 24.8 °F - 15.8 °F 69% 30.01 in 10.0 mi Calm Calm - N/A   Overcast
2:16 PM 24.8 °F 20.5 °F 15.8 °F 69% 30.01 in 10.0 mi North 3.5 mph - N/A   Overcast
2:36 PM 24.8 °F - 14.0 °F 64% 30.01 in 10.0 mi Calm Calm - N/A   Overcast
2:56 PM 24.8 °F 17.9 °F 12.2 °F 59% 30.01 in 10.0 mi NNE 5.8 mph - N/A   Overcast
3:16 PM 24.8 °F 16.9 °F 14.0 °F 64% 30.01 in 10.0 mi ENE 6.9 mph - N/A   Overcast
3:36 PM 24.8 °F 19.1 °F 12.2 °F 59% 30.01 in 10.0 mi NE 4.6 mph - N/A   Overcast
3:56 PM 24.8 °F 16.9 °F 12.2 °F 59% 30.02 in 10.0 mi East 6.9 mph - N/A   Overcast
4:16 PM 24.8 °F 19.1 °F 12.2 °F 59% 30.02 in 10.0 mi NNE 4.6 mph - N/A   Overcast
4:36 PM 24.8 °F 19.1 °F 12.2 °F 59% 30.02 in 10.0 mi ENE 4.6 mph - N/A   Overcast
4:56 PM 23.0 °F 17.0 °F 12.2 °F 63% 30.03 in 10.0 mi ENE 4.6 mph - N/A   Overcast
5:16 PM 24.8 °F 16.9 °F 14.0 °F 64% 30.03 in 10.0 mi ENE 6.9 mph - N/A   Overcast
5:36 PM 24.8 °F 16.1 °F 12.2 °F 59% 30.03 in 10.0 mi ENE 8.1 mph - N/A   Overcast
5:56 PM 23.0 °F 15.8 °F 12.2 °F 63% 30.03 in 10.0 mi ENE 5.8 mph - N/A   Overcast
6:16 PM 23.0 °F 17.0 °F 12.2 °F 63% 30.04 in 10.0 mi NE 4.6 mph - N/A   Overcast
6:36 PM 23.0 °F 15.8 °F 14.0 °F 68% 30.04 in 10.0 mi ENE 5.8 mph - N/A   Overcast
6:56 PM 23.0 °F 13.9 °F 14.0 °F 68% 30.04 in 10.0 mi ENE 8.1 mph - N/A   Overcast
7:16 PM 23.0 °F 14.7 °F 14.0 °F 68% 30.05 in 10.0 mi NE 6.9 mph - N/A   Overcast
7:36 PM 21.2 °F 13.6 °F 12.2 °F 68% 30.05 in 10.0 mi ENE 5.8 mph - N/A   Overcast
7:56 PM 21.2 °F 11.7 °F 12.2 °F 68% 30.06 in 10.0 mi NNE 8.1 mph - N/A   Mostly Cloudy
8:16 PM 19.4 °F 14.3 °F 12.2 °F 74% 30.06 in 10.0 mi NNE 3.5 mph - N/A   Clear
8:36 PM 19.4 °F 14.3 °F 12.2 °F 74% 30.07 in 10.0 mi NNE 3.5 mph - N/A   Clear
8:56 PM 17.6 °F 10.7 °F 10.4 °F 73% 30.07 in 10.0 mi NE 4.6 mph - N/A   Clear
9:16 PM 15.8 °F - 10.4 °F 79% 30.08 in 10.0 mi Calm Calm - N/A   Clear
9:36 PM 15.8 °F - 10.4 °F 79% 30.08 in 10.0 mi Calm Calm - N/A   Clear
9:56 PM 12.2 °F 6.1 °F 8.6 °F 85% 30.09 in 10.0 mi North 3.5 mph - N/A   Scattered Clouds
10:16 PM 14.0 °F - 10.4 °F 86% 30.09 in 10.0 mi Calm Calm - N/A   Partly Cloudy
10:36 PM 12.2 °F - 6.8 °F 79% 30.10 in 10.0 mi Calm Calm - N/A   Clear
10:56 PM 12.2 °F - 10.4 °F 92% 30.11 in 10.0 mi Calm Calm - N/A   Mostly Cloudy
11:16 PM 14.0 °F - 10.4 °F 86% 30.12 in 10.0 mi Calm Calm - N/A   Overcast
11:36 PM 12.2 °F - 8.6 °F 85% 30.12 in 10.0 mi Calm Calm - N/A   Overcast
11:56 PM 12.2 °F - 10.4 °F 92% 30.13 in 10.0 mi Calm Calm - N/A   Overcast